DW4248 Weather Reports


time (UTC)temp
C
wind
direction
speed
KPH
gust
KPH
rain 1hr
cm
rain 24hr
cm
rain mn
cm
humidity
%
barometer
mb
20260906145403 25 329 1.6 8.0 0.00 0.00 0.00 82 1016.2
20260906144503 25 330 3.2 8.0 0.00 0.00 0.00 83 1016.1
20260906143603 25 334 1.6 9.7 0.00 0.00 0.00 84 1016.2
20260906142703 25 329 1.6 4.8 0.00 0.00 0.00 84 1016.2
20260906141803 25 332 1.6 6.4 0.00 0.00 0.00 83 1016.2
20260906140903 25 328 0.0 6.4 0.00 0.00 0.00 83 1016.0
20260906140003 25 328 0.0 1.6 0.00 0.00 0.00 84 1016.0
20260906135424 25 331 0.0 3.2 0.00 0.00 0.00 85 1016.0
20260906134524 24 329 0.0 3.2 0.00 0.00 0.00 86 1016.0
20260906133624 24 333 0.0 4.8 0.00 0.00 0.00 87 1015.9
20260906132724 24 331 0.0 6.4 0.00 0.00 0.00 87 1016.0
20260906131824 24 323 0.0 3.2 0.00 0.00 0.00 87 1015.9
20260906130903 23 313 0.0 3.2 0.00 0.00 0.00 88 1016.0
20260906130003 23 332 1.6 6.4 0.00 0.00 0.00 88 1016.0
20260906125403 23 331 1.6 6.4 0.00 0.00 0.00 87 1016.0
20260906124503 23 338 0.0 4.8 0.00 0.00 0.00 88 1015.8
20260906123603 23 328 0.0 4.8 0.00 0.00 0.00 88 1015.7
20260906122703 23 327 0.0 1.6 0.00 0.00 0.00 88 1015.6
20260906121803 23 311 0.0 1.6 0.00 0.00 0.00 88 1015.6
20260906120903 23 329 0.0 1.6 0.00 0.00 0.00 88 1015.5
20260906120003 23 0 0.0 0.0 0.00 0.00 0.00 88 1015.4
20260906115403 23 0 0.0 0.0 0.00 0.00 0.00 87 1015.3
20260906114503 24 0 0.0 0.0 0.00 0.00 0.00 87 1015.4
20260906113603 24 0 0.0 0.0 0.00 0.00 0.00 87 1015.2
20260906112703 24 329 0.0 1.6 0.00 0.00 0.00 87 1015.1
20260906111803 24 329 0.0 1.6 0.00 0.00 0.00 86 1015.1
20260906110903 24 0 0.0 0.0 0.00 0.00 0.00 86 1015.0
20260906110003 24 0 0.0 1.6 0.00 0.00 0.00 86 1014.8
20260906105403 25 0 0.0 1.6 0.00 0.00 0.00 86 1014.9
20260906104503 25 325 0.0 1.6 0.00 0.00 0.00 86 1014.9
20260906103603 25 326 0.0 1.6 0.00 0.00 0.00 86 1014.8
20260906102703 25 323 0.0 1.6 0.00 0.00 0.00 86 1014.7
20260906101803 25 0 0.0 0.0 0.00 0.00 0.00 87 1014.7
20260906100903 25 333 0.0 1.6 0.00 0.00 0.00 86 1014.6
20260906100003 25 0 0.0 0.0 0.00 0.00 0.00 86 1014.5
20260906095403 25 0 0.0 0.0 0.00 0.00 0.00 86 1014.4
20260906094504 25 320 0.0 1.6 0.00 0.00 0.00 85 1014.5
20260906093603 25 0 0.0 0.0 0.00 0.00 0.00 85 1014.3
20260906092703 26 328 0.0 1.6 0.00 0.00 0.00 84 1014.3
20260906091803 26 333 0.0 3.2 0.00 0.00 0.00 85 1014.2
20260906090903 26 0 0.0 0.0 0.00 0.00 0.00 85 1014.1
20260906090004 26 321 0.0 1.6 0.00 0.00 0.00 85 1014.1
20260906085424 26 337 0.0 1.6 0.00 0.00 0.00 85 1014.1
20260906084524 26 325 0.0 1.6 0.00 0.00 0.00 85 1014.0
20260906083624 26 338 0.0 1.6 0.00 0.00 0.00 85 1014.0
20260906082724 26 327 0.0 1.6 0.00 0.00 0.00 85 1013.9
20260906081824 27 0 0.0 0.0 0.00 0.00 0.00 84 1013.9
20260906080924 27 297 0.0 1.6 0.00 0.00 0.00 84 1013.9
20260906080024 27 262 0.0 3.2 0.00 0.00 0.00 84 1013.8
20260906075424 27 330 0.0 3.2 0.00 0.00 0.00 84 1013.9
20260906074524 27 276 0.0 1.6 0.00 0.00 0.00 84 1013.9
20260906073624 27 0 0.0 1.6 0.00 0.00 0.00 84 1014.0
20260906072703 27 0 0.0 1.6 0.00 0.00 0.00 84 1013.9
20260906071803 27 0 0.0 1.6 0.00 0.00 0.00 83 1013.8
20260906070903 27 0 0.0 1.6 0.00 0.00 0.00 83 1013.7
20260906070003 27 0 0.0 1.6 0.00 0.00 0.00 83 1013.8
20260906065403 28 0 0.0 0.0 0.00 0.00 0.00 82 1013.9
20260906064504 28 0 0.0 0.0 0.00 0.00 0.00 81 1013.8
20260906063603 28 0 0.0 0.0 0.00 0.00 0.00 80 1013.9
20260906062703 28 184 0.0 3.2 0.00 0.00 0.00 80 1013.9
20260906061803 28 284 0.0 4.8 0.00 0.00 0.00 79 1013.8
20260906060903 29 330 0.0 4.8 0.00 0.00 0.00 79 1013.8
20260906060003 29 288 0.0 1.6 0.00 0.00 0.00 78 1013.9
20260906055403 29 323 0.0 1.6 0.00 0.00 0.00 78 1013.9
20260906054503 29 259 0.0 1.6 0.00 0.00 0.00 78 1013.9
20260906053603 29 259 0.0 1.6 0.00 0.00 0.00 77 1013.8
20260906052703 30 0 0.0 0.0 0.00 0.00 0.00 76 1013.8
20260906051803 30 0 0.0 0.0 0.00 0.00 0.00 76 1013.8
20260906050903 30 0 0.0 1.6 0.00 0.00 0.00 75 1013.9
20260906050004 30 221 0.0 1.6 0.00 0.00 0.00 75 1013.7
20260906045403 30 225 0.0 1.6 0.00 0.00 0.00 75 1013.6
20260906044503 30 0 0.0 0.0 0.00 0.00 0.00 75 1013.5
20260906043603 30 278 0.0 1.6 0.00 0.00 0.00 74 1013.5
20260906042703 30 0 0.0 0.0 0.00 0.00 0.00 73 1013.4
20260906041803 30 237 0.0 1.6 0.00 0.00 0.00 73 1013.4
20260906040903 30 0 0.0 0.0 0.00 0.00 0.00 71 1013.3
20260906040004 30 0 0.0 0.0 0.00 0.00 0.00 71 1013.3
20260906035403 30 0 0.0 1.6 0.00 0.00 0.00 70 1013.3
20260906034503 30 0 0.0 0.0 0.00 0.00 0.00 69 1013.2
20260906033603 30 211 0.0 1.6 0.00 0.00 0.00 70 1013.2
20260906032703 30 0 0.0 0.0 0.00 0.00 0.00 70 1013.2
20260906031803 30 0 0.0 1.6 0.00 0.00 0.00 68 1012.9
20260906030903 30 0 0.0 1.6 0.00 0.00 0.00 69 1012.9
20260906030003 30 0 0.0 0.0 0.00 0.00 0.00 71 1012.9
20260906025403 30 0 0.0 0.0 0.00 0.00 0.00 68 1012.8
20260906024503 31 0 0.0 0.0 0.00 0.00 0.00 68 1012.8
20260906023603 31 0 0.0 0.0 0.00 0.00 0.00 68 1012.6
20260906022703 31 0 0.0 0.0 0.00 0.00 0.00 67 1012.4
20260906021803 31 0 0.0 0.0 0.00 0.00 0.00 67 1012.3
20260906020903 31 0 0.0 0.0 0.00 0.00 0.00 66 1012.2
20260906020003 31 0 0.0 0.0 0.00 0.00 0.00 66 1012.1
20260906015403 31 0 0.0 0.0 0.00 0.00 0.00 65 1012.0
20260906014503 32 0 0.0 0.0 0.00 0.00 0.00 64 1011.9
20260906013603 32 0 0.0 0.0 0.00 0.00 0.00 63 1011.8
20260906012703 32 0 0.0 0.0 0.00 0.00 0.00 62 1011.7
20260906011803 32 0 0.0 0.0 0.00 0.00 0.00 62 1011.6
20260906010903 32 0 0.0 0.0 0.00 0.00 0.00 60 1011.5
20260906010003 33 0 0.0 0.0 0.00 0.00 0.00 61 1011.4
20260906005403 33 0 0.0 0.0 0.00 0.00 0.00 59 1011.3
20260906004503 33 319 0.0 3.2 0.00 0.00 0.00 57 1011.3
20260906003603 33 331 0.0 1.6 0.00 0.00 0.00 57 1011.3
20260906002703 33 329 0.0 1.6 0.00 0.00 0.00 56 1011.4
20260906001803 34 0 0.0 0.0 0.00 0.00 0.00 55 1011.3
20260906000903 34 0 0.0 1.6 0.00 0.00 0.00 54 1011.3
20260906000003 34 0 0.0 0.0 0.00 0.00 0.00 53 1011.4
20260905235403 35 322 0.0 1.6 0.00 0.00 0.00 53 1011.4
20260905234503 35 323 0.0 1.6 0.00 0.00 0.00 52 1011.4
20260905233603 35 0 0.0 0.0 0.00 0.00 0.00 52 1011.4
20260905232703 35 0 0.0 0.0 0.00 0.00 0.00 51 1011.4
20260905231803 35 323 0.0 1.6 0.00 0.00 0.00 49 1011.5
20260905230903 35 333 0.0 1.6 0.00 0.00 0.00 48 1011.5
20260905230005 36 333 1.6 4.8 0.00 0.00 0.00 46 1011.5
20260905225424 36 333 1.6 4.8 0.00 0.00 0.00 46 1011.5
20260905224524 36 330 1.6 6.4 0.00 0.00 0.00 46 1011.4
20260905223624 36 329 1.6 6.4 0.00 0.00 0.00 45 1011.3
20260905222725 36 334 3.2 12.9 0.00 0.00 0.00 47 1011.3
20260905221824 36 329 3.2 9.7 0.00 0.00 0.00 48 1011.3
20260905220903 36 332 1.6 6.4 0.00 0.00 0.00 44 1011.3
20260905220003 37 330 1.6 4.8 0.00 0.00 0.00 43 1011.2
20260905215403 37 330 1.6 4.8 0.00 0.00 0.00 43 1011.3
20260905214503 37 325 1.6 6.4 0.00 0.00 0.00 45 1011.4
20260905213603 36 317 1.6 6.4 0.00 0.00 0.00 46 1011.4
20260905212703 36 328 3.2 8.0 0.00 0.00 0.00 45 1011.3
20260905211803 36 334 1.6 6.4 0.00 0.00 0.00 47 1011.4
20260905210903 36 326 1.6 6.4 0.00 0.00 0.00 48 1011.5
20260905210003 36 330 1.6 8.0 0.00 0.00 0.00 48 1011.6
20260905205403 36 329 3.2 12.9 0.00 0.00 0.00 47 1011.8
20260905204503 37 334 4.8 12.9 0.00 0.00 0.00 44 1011.8
20260905203603 37 327 3.2 4.8 0.00 0.00 0.00 42 1011.7
20260905202703 38 332 3.2 12.9 0.00 0.00 0.00 38 1011.5
20260905201803 38 310 1.6 8.0 0.00 0.00 0.00 40 1011.5
20260905200903 38 331 1.6 8.0 0.00 0.00 0.00 43 1011.7
20260905200024 38 332 1.6 4.8 0.00 0.00 0.00 42 1011.8
20260905195424 38 333 1.6 4.8 0.00 0.00 0.00 42 1011.9
20260905194524 37 329 1.6 8.0 0.00 0.00 0.00 41 1012.0
20260905193624 37 335 3.2 8.0 0.00 0.00 0.00 41 1012.2
20260905192724 37 333 3.2 8.0 0.00 0.00 0.00 42 1012.4
20260905191803 37 338 1.6 6.4 0.00 0.00 0.00 41 1012.4
20260905190903 37 328 1.6 9.7 0.00 0.00 0.00 43 1012.4
20260905190003 37 327 1.6 8.0 0.00 0.00 0.00 43 1012.6
20260905185403 37 329 1.6 9.7 0.00 0.00 0.00 43 1012.6
20260905184503 37 333 1.6 8.0 0.00 0.00 0.00 44 1012.7
20260905183603 37 334 3.2 8.0 0.00 0.00 0.00 44 1012.9
20260905182703 37 334 3.2 8.0 0.00 0.00 0.00 45 1012.9
20260905181803 37 330 1.6 6.4 0.00 0.00 0.00 46 1013.0
20260905180903 36 335 1.6 4.8 0.00 0.00 0.00 48 1013.1
20260905180003 36 340 3.2 8.0 0.00 0.00 0.00 48 1013.2
20260905175403 36 333 1.6 8.0 0.00 0.00 0.00 47 1013.2
20260905174503 36 332 0.0 4.8 0.00 0.00 0.00 49 1013.3
20260905173603 36 332 3.2 6.4 0.00 0.00 0.00 50 1013.3
20260905172703 35 331 1.6 6.4 0.00 0.00 0.00 51 1013.4
20260905171803 35 341 1.6 6.4 0.00 0.00 0.00 51 1013.4
20260905170903 35 330 1.6 6.4 0.00 0.00 0.00 56 1013.7
20260905170003 35 356 0.0 3.2 0.00 0.00 0.00 58 1013.8
20260905165403 34 331 1.6 6.4 0.00 0.00 0.00 58 1013.9
20260905164503 34 327 0.0 3.2 0.00 0.00 0.00 58 1013.9
20260905163603 33 328 1.6 6.4 0.00 0.00 0.00 59 1013.9
20260905162724 33 328 1.6 6.4 0.00 0.00 0.00 60 1014.1
20260905161824 33 342 0.0 4.8 0.00 0.00 0.00 61 1014.1
20260905160924 33 323 1.6 4.8 0.00 0.00 0.00 60 1014.3
20260905160024 32 333 1.6 3.2 0.00 0.00 0.00 62 1014.1
20260905155424 32 354 1.6 4.8 0.00 0.00 0.00 62 1014.1
20260905154503 32 345 0.0 4.8 0.00 0.00 0.00 63 1014.2
20260905153603 31 338 1.6 6.4 0.00 0.00 0.00 65 1014.2
20260905152703 31 336 1.6 6.4 0.00 0.00 0.00 64 1014.2
20260905151803 31 341 0.0 4.8 0.00 0.00 0.00 65 1014.3
20260905150903 31 328 1.6 8.0 0.00 0.00 0.00 65 1014.3
20260905150003 31 330 1.6 8.0 0.00 0.00 0.00 65 1014.3